CW3224 Weather Reports


time (UTC)temp
F
wind
direction
speed
knots
gust
knots
rain 1hr
in
rain 24hr
in
rain mn
in
humidity
%
barometer
mb
20260510031606 47 94 0.0 0.0 0.00 0.48 0.48 93 1011.8
20260510030606 47 94 0.0 0.0 0.00 0.48 0.48 93 1012.1
20260510030043 47 94 0.0 0.0 0.00 0.48 0.48 93 1012.3
20260510024604 47 94 0.0 0.0 0.00 0.48 0.48 93 1012.3
20260510023606 47 94 0.0 0.0 0.00 0.48 0.48 93 1012.2
20260510023044 47 94 0.0 0.0 0.00 0.48 0.48 93 1012.3
20260510021604 47 94 0.0 0.0 0.00 0.48 0.48 93 1012.3
20260510021102 47 94 0.0 0.0 0.00 0.48 0.48 93 1012.3
20260510015603 47 94 0.0 0.0 0.00 0.48 0.48 93 1012.3
20260510014603 47 94 0.0 0.0 0.00 0.48 0.48 93 1012.3
20260510014522 47 94 0.0 0.0 0.01 0.48 0.48 93 1012.3
20260510012603 47 94 0.0 0.9 0.01 0.48 0.48 93 1012.3
20260510011602 47 94 0.0 2.6 0.02 0.48 0.48 93 1012.3
20260510010556 47 95 0.9 2.6 0.02 0.48 0.48 93 1012.1
20260510005555 47 125 0.0 2.6 0.02 0.48 0.48 93 1011.9
20260510004555 47 126 0.0 0.0 0.02 0.48 0.48 93 1011.9
20260510003555 47 126 0.0 0.0 0.02 0.47 0.47 92 1011.8
20260510002554 47 126 0.0 0.0 0.02 0.47 0.47 92 1012.1
20260510001551 47 126 0.0 1.7 0.02 0.46 0.46 92 1012.1
20260510000552 47 126 0.0 1.7 0.03 0.46 0.46 92 1012.3
20260509235551 47 126 0.0 2.6 0.04 0.46 0.46 92 1012.3
20260509234549 47 122 0.9 2.6 0.05 0.46 0.46 92 1012.3
20260509234026 47 122 0.0 1.7 0.05 0.45 0.45 92 1012.3
20260509232547 47 122 0.0 0.0 0.05 0.45 0.45 92 1012.2
20260509231547 47 122 0.9 2.6 0.05 0.44 0.44 92 1012.2
20260509230547 47 120 0.9 1.7 0.05 0.43 0.43 92 1011.9
20260509225546 47 121 0.0 2.6 0.04 0.42 0.42 92 1011.9
20260509225025 47 116 0.0 2.6 0.03 0.41 0.41 92 1011.9
20260509223547 47 100 0.9 2.6 0.03 0.40 0.41 92 1011.9
20260509222546 47 85 0.0 2.6 0.05 0.40 0.40 92 1012.2
20260509221547 48 59 0.9 2.6 0.09 0.39 0.39 92 1012.2
20260509220546 48 58 0.9 2.6 0.13 0.38 0.38 92 1012.2
20260509215533 48 43 0.9 4.3 0.16 0.38 0.38 92 1012.3
20260509215019 48 23 0.9 2.6 0.18 0.38 0.38 92 1012.3
20260509213532 48 21 1.7 4.3 0.19 0.37 0.37 92 1012.4
20260509212532 48 24 0.9 2.6 0.18 0.34 0.35 92 1012.5
20260509211532 48 24 0.9 2.6 0.14 0.30 0.30 92 1012.5
20260509210533 48 24 0.9 2.6 0.09 0.25 0.25 91 1012.5
20260509210008 48 31 0.9 2.6 0.06 0.22 0.22 91 1012.4
20260509204523 48 29 0.9 2.6 0.05 0.20 0.20 91 1012.4
20260509203523 48 42 0.9 2.6 0.03 0.18 0.18 91 1012.4
20260509202522 48 42 0.9 2.6 0.01 0.16 0.17 91 1012.3
20260509201523 48 42 1.7 4.3 0.01 0.16 0.16 91 1012.4
20260509200520 49 50 0.9 2.6 0.01 0.16 0.16 91 1012.4
20260509195522 49 50 0.9 2.6 0.00 0.15 0.16 91 1012.6
20260509194520 49 34 0.9 2.6 0.00 0.15 0.15 91 1012.3
20260509193520 49 34 0.9 2.6 0.00 0.15 0.15 91 1012.3
20260509193004 49 4 0.9 5.2 0.00 0.15 0.15 91 1012.1
20260509191521 49 358 1.7 5.2 0.00 0.15 0.15 91 1012.7
20260509190510 48 54 0.9 2.6 0.00 0.15 0.15 91 1012.7
20260509185510 48 52 2.6 5.2 0.00 0.15 0.15 91 1012.3
20260509184511 48 69 1.7 3.5 0.01 0.15 0.15 91 1012.8
20260509183510 48 72 1.7 3.5 0.02 0.15 0.15 91 1012.8
20260509182511 47 354 0.0 4.3 0.02 0.15 0.15 91 1013.0
20260509181511 47 301 0.0 0.0 0.03 0.15 0.15 91 1013.3
20260509180456 47 301 0.0 0.0 0.03 0.15 0.15 91 1013.3
20260509175457 47 301 0.0 0.0 0.03 0.15 0.15 91 1013.4
20260509174457 47 83 0.0 0.0 0.03 0.14 0.14 91 1013.4
20260509173455 47 42 0.0 0.0 0.03 0.13 0.14 91 1013.4
20260509172455 47 35 0.0 0.0 0.03 0.13 0.13 91 1013.4
20260509171453 46 33 0.0 0.0 0.03 0.12 0.12 91 1013.9
20260509170452 46 301 0.0 0.0 0.04 0.12 0.12 90 1013.9
20260509165452 46 301 0.0 0.0 0.04 0.12 0.12 90 1013.9
20260509164453 46 301 0.0 0.0 0.03 0.11 0.11 90 1014.0
20260509163452 46 301 0.0 0.0 0.03 0.10 0.10 90 1014.0
20260509162452 46 147 0.0 0.0 0.03 0.10 0.10 90 1013.9
20260509161452 46 301 0.0 0.0 0.02 0.09 0.09 90 1013.8
20260509160940 46 301 0.0 0.0 0.02 0.08 0.08 90 1013.8
20260509155453 46 50 0.9 2.6 0.02 0.08 0.08 90 1013.9
20260509154926 46 11 0.9 3.5 0.02 0.08 0.08 90 1014.2
20260509153450 46 189 0.0 0.0 0.01 0.07 0.07 90 1014.2
20260509152450 45 301 0.0 0.0 0.02 0.07 0.07 90 1014.4
20260509151450 45 187 0.0 0.0 0.03 0.07 0.07 90 1014.4
20260509150448 45 187 0.0 0.0 0.02 0.06 0.06 90 1014.4
20260509145439 45 301 0.0 0.9 0.03 0.06 0.06 90 1014.6
20260509144438 45 301 0.0 0.0 0.04 0.06 0.06 90 1014.6
20260509143436 45 301 0.0 0.0 0.04 0.06 0.06 91 1014.6
20260509142437 44 301 0.9 3.5 0.04 0.05 0.05 90 1014.9
20260509141427 44 190 0.0 1.7 0.03 0.04 0.04 91 1014.9
20260509140427 44 301 0.0 0.9 0.03 0.04 0.04 91 1014.9
20260509135425 44 301 0.0 1.7 0.03 0.03 0.03 91 1014.8
20260509134427 43 301 0.0 0.9 0.02 0.02 0.02 90 1014.4
20260509133426 43 301 0.0 0.0 0.02 0.02 0.02 90 1014.4
20260509133352 42 301 0.0 0.0 0.01 0.01 0.01 90 1014.4
20260509131426 42 301 0.0 0.0 0.01 0.01 0.01 90 1014.4
20260509130424 42 301 0.0 0.0 0.01 0.01 0.01 90 1014.4
20260509125903 42 301 0.0 0.9 0.00 0.00 0.00 89 1014.5
20260509124424 41 301 0.0 1.7 0.00 0.00 0.00 89 1014.7
20260509123424 41 301 0.0 0.0 0.00 0.00 0.00 89 1014.7
20260509122423 41 301 0.0 0.0 0.00 0.00 0.00 89 1014.8
20260509121412 40 301 0.0 0.0 0.00 0.00 0.00 89 1014.8
20260509120412 40 301 0.0 0.0 0.00 0.00 0.00 90 1014.8
20260509115412 39 301 0.0 1.7 0.00 0.00 0.00 90 1014.9
20260509114412 38 301 0.0 0.9 0.00 0.00 0.00 90 1014.9
20260509113410 38 187 0.0 1.7 0.00 0.00 0.00 90 1014.9
20260509112410 38 301 0.9 2.6 0.00 0.00 0.00 90 1014.7
20260509111355 37 301 0.0 0.0 0.00 0.00 0.00 90 1014.9
20260509110829 36 301 0.0 0.0 0.00 0.00 0.00 89 1014.9
20260509105357 35 301 0.0 0.0 0.00 0.00 0.00 89 1014.6
20260509104356 35 301 0.0 0.0 0.00 0.00 0.00 89 1014.7
20260509103355 35 301 0.0 0.0 0.00 0.00 0.00 89 1014.7
20260509102839 34 109 0.0 0.0 0.00 0.00 0.00 88 1014.6
20260509101353 34 301 0.0 0.0 0.00 0.00 0.00 88 1014.4
20260509100354 33 108 0.0 0.0 0.00 0.00 0.00 87 1014.4
20260509095353 33 109 0.0 0.0 0.00 0.00 0.00 87 1014.1
20260509094837 33 108 0.0 0.0 0.00 0.00 0.00 87 1014.0
20260509093353 33 108 0.0 0.0 0.00 0.00 0.00 87 1014.0
20260509092355 33 109 0.0 0.0 0.00 0.00 0.00 87 1013.9
20260509091351 33 109 0.0 0.0 0.00 0.00 0.00 86 1013.9
20260509090351 33 109 0.0 0.0 0.00 0.00 0.00 86 1013.9
20260509085351 34 109 0.0 0.0 0.00 0.00 0.00 86 1013.9
20260509084351 34 109 0.0 0.0 0.00 0.00 0.00 86 1013.6
20260509084318 34 109 0.0 0.0 0.00 0.00 0.00 86 1013.6
20260509082352 34 109 0.0 0.0 0.00 0.00 0.00 86 1013.7
20260509081345 34 301 0.0 0.0 0.00 0.00 0.00 85 1013.8
20260509080824 35 301 0.0 0.0 0.00 0.00 0.00 85 1013.8
20260509075346 35 109 0.0 0.0 0.00 0.00 0.00 85 1013.9
20260509074345 35 109 0.0 0.0 0.00 0.00 0.00 85 1013.6
20260509073346 35 109 0.0 0.0 0.00 0.00 0.00 84 1013.6
20260509072343 35 109 0.0 0.0 0.00 0.00 0.00 84 1013.7
20260509071343 36 109 0.0 0.0 0.00 0.00 0.00 84 1013.6
20260509070823 36 108 0.0 0.0 0.00 0.00 0.00 84 1013.6
20260509065344 36 109 0.0 0.0 0.00 0.00 0.00 84 1013.7
20260509064345 36 109 0.0 0.0 0.00 0.00 0.00 84 1013.4
20260509063344 37 301 0.0 0.0 0.00 0.00 0.00 83 1013.4
20260509062344 37 301 0.0 0.0 0.00 0.00 0.00 83 1013.4
20260509061339 37 109 0.0 0.0 0.00 0.00 0.00 83 1013.5
20260509060339 37 301 0.0 0.0 0.00 0.00 0.00 82 1013.5
20260509055816 37 301 0.0 0.0 0.00 0.00 0.00 82 1013.7
20260509054337 37 109 0.0 0.0 0.00 0.00 0.00 82 1013.8
20260509053338 37 109 0.0 0.0 0.00 0.00 0.00 82 1013.8
20260509052338 38 109 0.0 0.0 0.00 0.00 0.00 81 1013.6
20260509051332 38 109 0.0 0.0 0.00 0.00 0.00 81 1013.4
20260509050326 38 108 0.0 0.0 0.00 0.00 0.00 80 1013.4
20260509045808 38 108 0.0 0.0 0.00 0.00 0.00 81 1013.4
20260509044326 38 108 0.9 1.7 0.00 0.00 0.00 81 1013.4
20260509043324 39 108 0.0 1.7 0.00 0.00 0.00 80 1013.4
20260509042326 39 108 0.9 1.7 0.00 0.00 0.00 79 1013.4
20260509041325 39 108 0.0 2.6 0.00 0.00 0.00 77 1013.2
20260509041238 40 108 0.0 0.0 0.00 0.00 0.00 75 1013.2
20260509035317 40 108 0.0 0.0 0.00 0.00 0.00 75 1013.0
20260509034317 40 108 0.0 0.0 0.00 0.00 0.00 74 1013.0
20260509033257 41 108 0.0 0.0 0.00 0.00 0.00 74 1013.0